Погода в Песках

Россия / Новгородская область     57°38′44″N   32°36′29″E
темп.,
°C
ветер,
м/с
пор.,
м/с
влажн.,
%
обл.,
%
осадки,
мм/ч
давл.,
гПа
погр.,
м
2 марта, вт
вт200:00+2з51291100 0.0 1013746
03:00+1з51192100 0.0 1013682
06:00+1з41193100 0.0 1011666
09:00+1зсз41097100 0.1 1011661
12:00+1сз41088100 0.3 1011946
15:00+2сз61078100 0.4 10121124
18:00+1сз51180100 0.1 10141086
21:00−1сз5128497 0.1 1017902
3 марта, ср
ср300:00−1сз4109062 0.1 1018738
03:00−2зсз3109559 0.1 1020410
06:00−2з4109380 0.0 1018599
09:00−1зсз598890 0.1 1018733
12:00−1зсз5885100 0.1 1016800
15:00+1з5980100 0.1 1015930
18:00+1зюз31081100 0.0 1012935
21:00+1з41198100 0.1 1010658
4 марта, чт
чт400:00+1зюз51382100 0.1 1005757
03:00+1з51298100 1.8 1003736
06:00+1з51197100 0.3 1001808
09:00−1сз4985100 0.9 1001833
12:00−1ссз4767100 0.0 10011088
15:000ссз476474 0.0 10021324
18:00−2сз377670 0.1 1003344
21:00−4сз268576 0.1 1005332
5 марта, пт
пт500:00−5ссв478994 0.8 1005595
03:00−6сз268296 0.9 1007633
06:00−6сз378792 0.1 1008626
09:00−6сз368991 0.3 1009600
12:00−5сз3570100 0.3 10111040
15:00−4сз3568100 0.4 10121046
18:00−5сз3676100 0.1 1012737
21:00−7зсз268675 0.1 1015249
6 марта, сб
сб600:00−7с3691100 0.1 1016503
03:00−10с3682100 0.2 1018646
06:00−11зсз259013 0.0 1018261
09:00−9з35838 0.0 1018405
12:00−6зюз466725 0.0 1017788
15:00−4зюз596044 0.0 10141338
18:00−5юз5136199 0.0 10101373
21:00−5юз8179099 0.6 10041537